AAL2349 KSFO-KSAN

Flight info

Callsign AAL2349
Flight time 1h 11m
Altitude 33000
Route WESLA5 YYUNG LAX COMIX2
Aircraft A321/M-SDE3FGHIRWY/LB1

Departure

Time 2026-04-25 20:34
Airport San Francisco International Airport (KSFO)

Arrival

Time 2026-04-25 21:45
Airport San Diego International Airport (KSAN)
Time Latitude Longitude Altitude Speed Heading
2026-04-25 20:19 37.61677 -122.38057 16 ft 0 kts 297°
2026-04-25 20:23 37.61672 -122.38045 17 ft 4 kts 298°
2026-04-25 20:23 37.61661 -122.38023 16 ft 4 kts 311°
2026-04-25 20:23 37.61641 -122.38000 15 ft 4 kts 328°
2026-04-25 20:24 37.61633 -122.37994 15 ft 0 kts 330°
2026-04-25 20:27 37.61634 -122.37995 15 ft 1 kts 330°
2026-04-25 20:27 37.61649 -122.37993 15 ft 3 kts 19°
2026-04-25 20:27 37.61662 -122.37976 16 ft 3 kts 55°
2026-04-25 20:28 37.61675 -122.37941 17 ft 6 kts 70°
2026-04-25 20:28 37.61673 -122.37873 18 ft 10 kts 98°
2026-04-25 20:28 37.61668 -122.37805 18 ft 8 kts 95°
2026-04-25 20:28 37.61661 -122.37714 19 ft 13 kts 97°
2026-04-25 20:29 37.61647 -122.37582 18 ft 16 kts 97°
2026-04-25 20:29 37.61632 -122.37448 21 ft 15 kts 97°
2026-04-25 20:29 37.61621 -122.37327 24 ft 13 kts 97°
2026-04-25 20:29 37.61595 -122.37212 23 ft 14 kts 120°
2026-04-25 20:30 37.61545 -122.37097 23 ft 15 kts 118°
2026-04-25 20:30 37.61494 -122.36977 23 ft 16 kts 118°
2026-04-25 20:30 37.61421 -122.36864 21 ft 18 kts 128°
2026-04-25 20:30 37.61345 -122.36731 18 ft 19 kts 117°
2026-04-25 20:31 37.61279 -122.36574 16 ft 21 kts 118°
2026-04-25 20:31 37.61215 -122.36420 19 ft 18 kts 118°
2026-04-25 20:31 37.61164 -122.36300 19 ft 14 kts 118°
2026-04-25 20:31 37.61117 -122.36187 20 ft 15 kts 118°
2026-04-25 20:32 37.61070 -122.36076 20 ft 14 kts 118°
2026-04-25 20:32 37.61055 -122.35961 19 ft 14 kts 70°
2026-04-25 20:32 37.61134 -122.35880 19 ft 15 kts 23°
2026-04-25 20:32 37.61206 -122.35927 20 ft 6 kts 297°
2026-04-25 20:33 37.61215 -122.35949 17 ft 19 kts 297°
2026-04-25 20:33 37.61399 -122.36389 15 ft 91 kts 298°
2026-04-25 20:33 37.61789 -122.37314 18 ft 147 kts 298°
2026-04-25 20:33 37.62140 -122.38142 61 ft 172 kts 297°
2026-04-25 20:34 37.62872 -122.39875 947 ft 169 kts 295°
2026-04-25 20:34 37.63432 -122.41198 1661 ft 173 kts 296°
2026-04-25 20:34 37.64031 -122.42589 2001 ft 188 kts 296°
2026-04-25 20:34 37.64685 -122.44087 2294 ft 202 kts 296°
2026-04-25 20:35 37.65397 -122.45733 2446 ft 225 kts 296°
2026-04-25 20:35 37.66166 -122.47495 3020 ft 229 kts 296°
2026-04-25 20:35 37.66835 -122.49347 3530 ft 240 kts 277°
2026-04-25 20:35 37.66587 -122.51426 3982 ft 248 kts 240°
2026-04-25 20:36 37.65333 -122.52912 4579 ft 255 kts 204°
2026-04-25 20:36 37.63565 -122.53196 5184 ft 265 kts 173°
2026-04-25 20:36 37.61773 -122.52580 5808 ft 270 kts 161°
2026-04-25 20:36 37.60007 -122.51694 6430 ft 275 kts 159°
2026-04-25 20:37 37.58214 -122.50796 7081 ft 278 kts 160°
2026-04-25 20:37 37.56388 -122.49982 7726 ft 280 kts 162°
2026-04-25 20:37 37.54522 -122.49256 8398 ft 281 kts 164°
2026-04-25 20:37 37.52654 -122.48606 9051 ft 283 kts 165°
2026-04-25 20:38 37.50733 -122.47988 9702 ft 286 kts 166°
2026-04-25 20:38 37.48765 -122.47614 10306 ft 288 kts 180°
2026-04-25 20:38 37.46751 -122.47864 10727 ft 298 kts 188°
2026-04-25 20:38 37.44630 -122.48271 10846 ft 318 kts 188°
2026-04-25 20:39 37.42368 -122.48701 10984 ft 337 kts 188°
2026-04-25 20:39 37.39985 -122.49148 11105 ft 354 kts 188°
2026-04-25 20:39 37.37487 -122.49611 11233 ft 370 kts 188°
2026-04-25 20:39 37.36653 -122.49765 11273 ft 375 kts 188°
2026-04-25 20:40 37.32246 -122.50582 11738 ft 390 kts 188°
2026-04-25 20:40 37.29546 -122.51087 12205 ft 394 kts 188°
2026-04-25 20:40 37.26818 -122.51597 12685 ft 397 kts 188°
2026-04-25 20:40 37.24064 -122.52110 13145 ft 401 kts 188°
2026-04-25 20:41 37.21294 -122.52625 13604 ft 404 kts 188°
2026-04-25 20:41 37.18503 -122.53141 14020 ft 407 kts 188°
2026-04-25 20:41 37.15690 -122.53657 14438 ft 410 kts 188°
2026-04-25 20:41 37.12890 -122.54170 14871 ft 412 kts 187°
2026-04-25 20:42 37.10042 -122.54693 15294 ft 414 kts 187°
2026-04-25 20:42 37.07183 -122.55220 15713 ft 416 kts 187°
2026-04-25 20:42 37.04294 -122.55535 16119 ft 418 kts 179°
2026-04-25 20:42 37.01396 -122.55262 16524 ft 418 kts 169°
2026-04-25 20:43 36.98560 -122.54392 16931 ft 419 kts 160°
2026-04-25 20:43 36.95881 -122.52941 17409 ft 419 kts 151°
2026-04-25 20:43 36.93367 -122.51097 17842 ft 420 kts 149°
2026-04-25 20:43 36.90847 -122.49231 18255 ft 422 kts 149°
2026-04-25 20:44 36.88312 -122.47366 18608 ft 424 kts 149°
2026-04-25 20:44 36.85760 -122.45490 18938 ft 427 kts 149°
2026-04-25 20:44 36.83222 -122.43627 19257 ft 429 kts 149°
2026-04-25 20:44 36.80643 -122.41737 19593 ft 431 kts 150°
2026-04-25 20:45 36.78042 -122.39836 19857 ft 435 kts 150°
2026-04-25 20:45 36.75423 -122.37922 20163 ft 438 kts 150°
2026-04-25 20:45 36.72784 -122.35997 20470 ft 440 kts 150°
2026-04-25 20:45 36.70132 -122.34063 20761 ft 443 kts 150°
2026-04-25 20:46 36.67461 -122.32113 21059 ft 446 kts 150°
2026-04-25 20:46 36.64772 -122.30149 21345 ft 449 kts 150°
2026-04-25 20:46 36.62064 -122.28170 21609 ft 453 kts 150°
2026-04-25 20:46 36.59341 -122.26181 21879 ft 456 kts 150°
2026-04-25 20:47 36.56594 -122.24179 22172 ft 458 kts 150°
2026-04-25 20:47 36.53835 -122.22173 22467 ft 460 kts 150°
2026-04-25 20:47 36.51096 -122.20185 22752 ft 463 kts 150°
2026-04-25 20:47 36.48307 -122.18165 23049 ft 465 kts 150°
2026-04-25 20:48 36.45511 -122.16137 23353 ft 466 kts 150°
2026-04-25 20:48 36.42709 -122.14104 23672 ft 466 kts 150°
2026-04-25 20:48 36.39905 -122.12070 23934 ft 467 kts 150°
2026-04-25 20:48 36.37096 -122.10035 24190 ft 467 kts 150°
2026-04-25 20:49 36.34287 -122.08005 24424 ft 468 kts 150°
2026-04-25 20:49 36.31470 -122.05973 24656 ft 468 kts 151°
2026-04-25 20:49 36.29602 -122.04627 24794 ft 468 kts 151°
2026-04-25 20:49 36.25837 -122.01914 25076 ft 469 kts 151°
2026-04-25 20:50 36.23968 -122.00565 25260 ft 467 kts 151°
2026-04-25 20:50 36.21164 -121.98538 25569 ft 466 kts 151°
2026-04-25 20:50 36.18370 -121.96520 25873 ft 464 kts 152°
2026-04-25 20:50 36.15591 -121.94518 26181 ft 462 kts 152°
2026-04-25 20:51 36.12820 -121.92530 26490 ft 460 kts 152°
2026-04-25 20:51 36.10059 -121.90551 26810 ft 458 kts 152°
2026-04-25 20:51 36.07308 -121.88583 27113 ft 456 kts 152°
2026-04-25 20:51 36.04563 -121.86620 27432 ft 454 kts 152°
2026-04-25 20:52 36.01871 -121.84591 27742 ft 454 kts 147°
2026-04-25 20:52 36.00222 -121.82992 27957 ft 455 kts 141°
2026-04-25 20:52 35.97380 -121.79174 28340 ft 458 kts 132°
2026-04-25 20:52 35.95440 -121.76054 28552 ft 459 kts 133°
2026-04-25 20:53 35.93492 -121.72937 28816 ft 458 kts 133°
2026-04-25 20:53 35.91536 -121.69825 29097 ft 457 kts 133°
2026-04-25 20:53 35.89581 -121.66723 29385 ft 456 kts 134°
2026-04-25 20:53 35.87633 -121.63634 29659 ft 455 kts 134°
2026-04-25 20:54 35.85692 -121.60555 29941 ft 455 kts 134°
2026-04-25 20:54 35.83750 -121.57480 30193 ft 454 kts 134°
2026-04-25 20:54 35.81815 -121.54413 30408 ft 453 kts 134°
2026-04-25 20:54 35.79879 -121.51344 30595 ft 454 kts 135°
2026-04-25 20:55 35.77937 -121.48267 30733 ft 455 kts 135°
2026-04-25 20:55 35.76014 -121.45226 30903 ft 456 kts 135°
2026-04-25 20:55 35.74066 -121.42148 31096 ft 456 kts 135°
2026-04-25 20:55 35.72110 -121.39065 31294 ft 456 kts 135°
2026-04-25 20:56 35.70152 -121.35988 31490 ft 456 kts 135°
2026-04-25 20:56 35.68197 -121.32917 31682 ft 455 kts 135°
2026-04-25 20:56 35.66245 -121.29852 31884 ft 455 kts 135°
2026-04-25 20:56 35.64294 -121.26787 32083 ft 455 kts 135°
2026-04-25 20:57 35.62343 -121.23720 32257 ft 455 kts 135°
2026-04-25 20:57 35.60421 -121.20696 32461 ft 454 kts 135°
2026-04-25 20:57 35.58475 -121.17637 32665 ft 454 kts 135°
2026-04-25 20:57 35.56534 -121.14589 32863 ft 453 kts 135°
2026-04-25 20:58 35.54587 -121.11540 32978 ft 455 kts 135°
2026-04-25 20:58 35.52632 -121.08481 32996 ft 456 kts 135°
2026-04-25 20:58 35.48772 -121.02248 32996 ft 460 kts 133°
2026-04-25 20:59 35.45093 -120.95796 32983 ft 461 kts 131°
2026-04-25 20:59 35.41452 -120.89342 32997 ft 459 kts 131°
2026-04-25 21:00 35.38383 -120.84031 32979 ft 460 kts 132°
2026-04-25 21:01 35.32157 -120.73414 33005 ft 462 kts 133°
2026-04-25 21:01 35.28408 -120.67018 33010 ft 463 kts 132°
2026-04-25 21:02 35.24656 -120.60595 33016 ft 463 kts 132°
2026-04-25 21:02 35.20930 -120.54220 32989 ft 463 kts 133°
2026-04-25 21:03 35.17165 -120.47815 32990 ft 464 kts 133°
2026-04-25 21:03 35.13389 -120.41405 33006 ft 465 kts 133°
2026-04-25 21:04 35.09611 -120.34998 32995 ft 465 kts 133°
2026-04-25 21:04 35.05828 -120.28584 32995 ft 465 kts 133°
2026-04-25 21:05 35.02038 -120.22186 33004 ft 466 kts 133°
2026-04-25 21:05 34.98235 -120.15773 33000 ft 466 kts 133°
2026-04-25 21:06 34.94433 -120.09369 32978 ft 466 kts 133°
2026-04-25 21:06 34.90651 -120.03016 32965 ft 466 kts 134°
2026-04-25 21:07 34.86845 -119.96629 32963 ft 466 kts 134°
2026-04-25 21:07 34.83028 -119.90234 32956 ft 466 kts 134°
2026-04-25 21:08 34.79209 -119.83856 32967 ft 467 kts 134°
2026-04-25 21:08 34.75395 -119.77486 32927 ft 467 kts 135°
2026-04-25 21:09 34.69625 -119.67892 32942 ft 469 kts 135°
2026-04-25 21:09 34.65768 -119.61470 32944 ft 470 kts 135°
2026-04-25 21:10 34.61907 -119.55065 32936 ft 470 kts 135°
2026-04-25 21:10 34.58033 -119.48664 32954 ft 470 kts 135°
2026-04-25 21:11 34.54190 -119.42316 32947 ft 470 kts 135°
2026-04-25 21:11 34.50300 -119.35892 32954 ft 470 kts 135°
2026-04-25 21:12 34.46452 -119.29567 32960 ft 469 kts 135°
2026-04-25 21:12 34.43224 -119.24266 32936 ft 470 kts 135°
2026-04-25 21:13 34.38678 -119.16815 32964 ft 471 kts 135°
2026-04-25 21:13 34.34781 -119.10442 32975 ft 471 kts 135°
2026-04-25 21:14 34.30912 -119.04118 32979 ft 471 kts 135°
2026-04-25 21:14 34.27018 -118.97759 32954 ft 471 kts 136°
2026-04-25 21:15 34.23109 -118.91390 32942 ft 471 kts 136°
2026-04-25 21:15 34.19192 -118.85024 32945 ft 472 kts 136°
2026-04-25 21:16 34.15278 -118.78660 32951 ft 472 kts 136°
2026-04-25 21:16 34.11374 -118.72332 32935 ft 473 kts 136°
2026-04-25 21:17 34.07437 -118.65960 32939 ft 474 kts 136°
2026-04-25 21:17 34.03486 -118.59576 32964 ft 474 kts 136°
2026-04-25 21:18 33.99530 -118.53204 32976 ft 475 kts 136°
2026-04-25 21:18 33.95589 -118.46871 32960 ft 475 kts 136°
2026-04-25 21:19 33.91435 -118.40762 32976 ft 467 kts 142°
2026-04-25 21:19 33.87010 -118.35036 32981 ft 467 kts 142°
2026-04-25 21:20 33.83321 -118.30273 32988 ft 468 kts 142°
2026-04-25 21:20 33.78129 -118.23576 32969 ft 468 kts 143°
2026-04-25 21:21 33.75916 -118.20714 32663 ft 466 kts 142°
2026-04-25 21:21 33.73760 -118.17887 31957 ft 462 kts 142°
2026-04-25 21:21 33.71600 -118.15033 30990 ft 461 kts 141°
2026-04-25 21:21 33.69442 -118.12178 29859 ft 461 kts 141°
2026-04-25 21:22 33.67276 -118.09322 28625 ft 461 kts 141°
2026-04-25 21:22 33.65104 -118.06467 27470 ft 463 kts 140°
2026-04-25 21:22 33.62960 -118.03644 27164 ft 450 kts 140°
2026-04-25 21:22 33.60863 -118.00883 26581 ft 445 kts 141°
2026-04-25 21:23 33.58784 -117.98163 26010 ft 441 kts 141°
2026-04-25 21:23 33.56719 -117.95473 25444 ft 436 kts 141°
2026-04-25 21:23 33.54665 -117.92817 24882 ft 431 kts 142°
2026-04-25 21:23 33.52583 -117.90264 24329 ft 426 kts 143°
2026-04-25 21:24 33.50470 -117.87799 23783 ft 421 kts 144°
2026-04-25 21:24 33.48357 -117.85404 23191 ft 417 kts 144°
2026-04-25 21:24 33.46281 -117.83068 22667 ft 411 kts 144°
2026-04-25 21:24 33.44190 -117.80702 22125 ft 406 kts 144°
2026-04-25 21:25 33.42252 -117.78294 21602 ft 414 kts 134°
2026-04-25 21:25 33.40847 -117.75218 20880 ft 431 kts 115°
2026-04-25 21:25 33.39995 -117.71759 20232 ft 433 kts 111°
2026-04-25 21:25 33.39208 -117.68293 19670 ft 430 kts 111°
2026-04-25 21:26 33.38426 -117.64856 19126 ft 427 kts 111°
2026-04-25 21:26 33.37643 -117.61441 18589 ft 423 kts 111°
2026-04-25 21:26 33.36861 -117.58057 18034 ft 419 kts 111°
2026-04-25 21:26 33.36088 -117.54709 17455 ft 416 kts 111°
2026-04-25 21:27 33.35326 -117.51383 16890 ft 413 kts 111°
2026-04-25 21:27 33.34588 -117.48128 16362 ft 409 kts 111°
2026-04-25 21:27 33.33849 -117.44855 15784 ft 406 kts 111°
2026-04-25 21:27 33.33113 -117.41604 15247 ft 402 kts 111°
2026-04-25 21:28 33.32388 -117.38381 15026 ft 402 kts 111°
2026-04-25 21:28 33.31665 -117.35154 14996 ft 402 kts 111°
2026-04-25 21:28 33.30941 -117.31907 15005 ft 404 kts 111°
2026-04-25 21:28 33.30216 -117.28653 15010 ft 405 kts 111°
2026-04-25 21:29 33.29492 -117.25397 15002 ft 405 kts 111°
2026-04-25 21:29 33.28772 -117.22141 15007 ft 405 kts 111°
2026-04-25 21:29 33.28053 -117.18887 15006 ft 405 kts 111°
2026-04-25 21:29 33.27342 -117.15681 14983 ft 405 kts 111°
2026-04-25 21:30 33.26617 -117.12422 14992 ft 405 kts 111°
2026-04-25 21:30 33.25891 -117.09163 14972 ft 405 kts 111°
2026-04-25 21:30 33.25165 -117.05908 14972 ft 405 kts 111°
2026-04-25 21:30 33.24603 -117.03793 14980 ft 399 kts 120°
2026-04-25 21:31 33.22558 -117.00271 14659 ft 375 kts 146°
2026-04-25 21:31 33.20554 -116.98349 14085 ft 366 kts 150°
2026-04-25 21:31 33.18533 -116.96517 13514 ft 363 kts 150°
2026-04-25 21:31 33.16517 -116.94714 12873 ft 360 kts 150°
2026-04-25 21:32 33.14508 -116.92951 12276 ft 357 kts 150°
2026-04-25 21:32 33.12504 -116.91220 11697 ft 354 kts 150°
2026-04-25 21:32 33.10533 -116.89545 11132 ft 351 kts 150°
2026-04-25 21:32 33.08531 -116.87877 10558 ft 349 kts 150°
2026-04-25 21:33 33.06558 -116.86249 10282 ft 338 kts 151°
2026-04-25 21:33 33.04679 -116.84672 10194 ft 322 kts 150°
2026-04-25 21:33 33.02884 -116.83156 10060 ft 309 kts 150°
2026-04-25 21:33 33.01097 -116.81898 10011 ft 285 kts 168°
2026-04-25 21:34 32.99208 -116.81571 9732 ft 270 kts 187°
2026-04-25 21:34 32.97343 -116.81732 9285 ft 268 kts 191°
2026-04-25 21:34 32.95484 -116.81961 8864 ft 268 kts 190°
2026-04-25 21:34 32.93630 -116.82218 8505 ft 268 kts 191°
2026-04-25 21:35 32.91801 -116.82484 8120 ft 268 kts 191°
2026-04-25 21:35 32.89950 -116.82769 7765 ft 269 kts 191°
2026-04-25 21:35 32.88076 -116.83067 7438 ft 267 kts 191°
2026-04-25 21:35 32.86258 -116.83353 7058 ft 267 kts 189°
2026-04-25 21:36 32.84421 -116.83656 6754 ft 262 kts 191°
2026-04-25 21:36 32.82652 -116.83938 6631 ft 251 kts 192°
2026-04-25 21:36 32.80956 -116.84201 6507 ft 240 kts 189°
2026-04-25 21:36 32.79350 -116.84471 6388 ft 228 kts 191°
2026-04-25 21:37 32.77802 -116.84735 6057 ft 223 kts 192°
2026-04-25 21:37 32.77282 -116.84821 5945 ft 222 kts 191°
2026-04-25 21:37 32.74750 -116.85231 5275 ft 220 kts 191°
2026-04-25 21:37 32.73239 -116.85486 5043 ft 218 kts 190°
2026-04-25 21:38 32.71737 -116.85732 5035 ft 218 kts 194°
2026-04-25 21:38 32.70419 -116.86444 5019 ft 206 kts 225°
2026-04-25 21:38 32.69669 -116.87847 5039 ft 204 kts 247°
2026-04-25 21:38 32.69158 -116.89429 5048 ft 201 kts 250°
2026-04-25 21:39 32.68694 -116.90962 5054 ft 195 kts 251°
2026-04-25 21:39 32.68243 -116.92465 4906 ft 191 kts 251°
2026-04-25 21:39 32.67797 -116.93946 4492 ft 190 kts 250°
2026-04-25 21:39 32.67357 -116.95412 4106 ft 187 kts 251°
2026-04-25 21:40 32.67070 -116.96380 3861 ft 187 kts 250°
2026-04-25 21:40 32.66707 -116.97860 3830 ft 189 kts 265°
2026-04-25 21:40 32.66962 -116.99391 3849 ft 191 kts 288°
2026-04-25 21:40 32.67449 -117.00864 3843 ft 191 kts 290°
2026-04-25 21:41 32.68124 -117.02784 3836 ft 186 kts 291°
2026-04-25 21:41 32.68458 -117.03728 3687 ft 181 kts 291°
2026-04-25 21:41 32.68957 -117.05088 3379 ft 179 kts 293°
2026-04-25 21:41 32.69703 -117.06251 3181 ft 171 kts 309°
2026-04-25 21:42 32.70483 -117.07226 3007 ft 156 kts 308°
2026-04-25 21:42 32.70959 -117.08275 2782 ft 139 kts 283°
2026-04-25 21:42 32.71216 -117.09393 2426 ft 142 kts 281°
2026-04-25 21:42 32.71455 -117.10523 2118 ft 141 kts 282°
2026-04-25 21:43 32.71698 -117.11644 1771 ft 145 kts 282°
2026-04-25 21:43 32.71959 -117.12829 1475 ft 150 kts 281°
2026-04-25 21:43 32.72209 -117.14040 1114 ft 153 kts 281°
2026-04-25 21:43 32.72484 -117.15272 693 ft 156 kts 282°
2026-04-25 21:44 32.72765 -117.16502 380 ft 152 kts 283°
2026-04-25 21:44 32.73052 -117.17673 118 ft 144 kts 282°
2026-04-25 21:44 32.73512 -117.19603 25 ft 68 kts 288°
2026-04-25 21:45 32.73518 -117.19808 30 ft 17 kts 251°
2026-04-25 21:45 32.73499 -117.19872 24 ft 6 kts 250°
2026-04-25 21:45 32.73492 -117.19902 24 ft 0 kts 255°
2026-04-25 21:46 32.73491 -117.19904 24 ft 1 kts 255°
2026-04-25 21:46 32.73490 -117.19924 26 ft 4 kts 268°
2026-04-25 21:46 32.73497 -117.19964 23 ft 6 kts 285°
2026-04-25 21:47 32.73511 -117.20024 22 ft 9 kts 286°
2026-04-25 21:47 32.73529 -117.20097 22 ft 10 kts 286°
2026-04-25 21:47 32.73546 -117.20173 23 ft 9 kts 281°
2026-04-25 21:47 32.73521 -117.20233 23 ft 10 kts 201°
2026-04-25 21:48 32.73448 -117.20259 21 ft 12 kts 196°
2026-04-25 21:48 32.73379 -117.20277 22 ft 4 kts 179°
2026-04-25 21:48 32.73351 -117.20270 23 ft 5 kts 163°
2026-04-25 21:48 32.73316 -117.20257 21 ft 6 kts 156°
2026-04-25 21:49 32.73294 -117.20213 21 ft 7 kts 96°
2026-04-25 21:49 32.73294 -117.20170 21 ft 4 kts 92°
2026-04-25 21:49 32.73294 -117.20167 21 ft 0 kts 92°